Regional Weather Roundup
Issued by NWS Kansas City/Pleasant Hill, MO

Home | Current Version | Previous Version | Graphics & Text | Print | Product List | Glossary Off
Versions: 1 2 3 4 5 6 7 8 9 10 11 12 13 14 15 16 17 18 19 20 21 22 23 24 25 26 27 28 29 30 31 32 33 34 35 36 37 38 39 40 41 42 43 44 45 46 47 48 49 50

000
ASUS43 KEAX 271410
RWREAX

WEATHER ROUNDUP FOR EASTERN KANSAS AND NORTHWEST MISSOURI
NATIONAL WEATHER SERVICE KANSAS CITY/PLEASANT HILL MO
900 AM CDT SAT MAY 27 2017

KSZ040-057-103>105-MOZ028-029-037-043-271500-
...KANSAS CITY METROPOLITAN AREA...

CITY           SKY/WX    TMP DP  RH WIND       PRES   REMARKS
K.C. INTL      RAIN      61  59  93 NE9       29.92R FOG
K.C. DOWNTOWN  CLOUDY    69  59  70 N16G24    29.90R
LEES SUMMIT    CLOUDY    71  68  90 N9        29.92R
OLATHE - IXD   PTSUNNY   67  60  78 N18G25    29.89F
OLATHE - OJC   CLOUDY    68  65  90 N14       29.89F
LAWRENCE       CLOUDY    63  61  93 NE12      29.87F

$$

MOZ001>008-011>017-020>025-030>033-038>040-044>046-053-054-271500-
...NORTHERN AND CENTRAL MISSOURI...

CITY           SKY/WX    TMP DP  RH WIND       PRES   REMARKS
ST. JOSEPH     TSTM      62  61  96 CALM      29.93F
MOSBY          CLOUDY    68  63  83 NW18G38   29.96R
WARRENSBURG    PTSUNNY   72  66  83 NW5       29.90R
WHITEMAN AFB   PTSUNNY   74  74 100 NE3       29.88R
CLINTON        NOT AVBL
SEDALIA        MOSUNNY   75  72  90 SE10      29.87R
WARSAW         NOT AVBL
CHILLICOTHE      N/A     71  65  81 VRB3      29.92R
KIRKSVILLE     MOSUNNY   70  62  76 E8        29.89S

$$

MOZ041-047>049-056>058-063>065-088>090-097-271500-
...EASTERN AND SOUTHERN MISSOURI...

CITY           SKY/WX    TMP DP  RH WIND       PRES   REMARKS
ST. LOUIS INTL MOSUNNY   76  64  66 VRB5      29.88R
SPIRIT OF STL  SUNNY     74  67  78 E6        29.87R
COLUMBIA       SUNNY     75  64  68 E9        29.86F
JEFFERSON CITY SUNNY     77  65  66 SE8       29.85F
ROLLA          PTSUNNY   72  69  90 E10       29.87S
OSAGE BEACH    PTSUNNY   74  70  87 SE8       29.86S
SPRINGFIELD    PTSUNNY   75  69  81 S10       29.84S
BRANSON        MOSUNNY   72  66  83 SE8       29.88S
JOPLIN         CLOUDY    78  74  87 SW7       29.84R
WEST PLAINS    MOSUNNY   73  66  78 VRB5      29.90R

$$

IAZ060-094-KSZ022-034>040-054-083-096-NEZ052-066-093-271500-
...KANSAS...SOUTHEAST NEBRASKA AND IOWA...

CITY           SKY/WX    TMP DP  RH WIND       PRES   REMARKS
TOPEKA         CLOUDY    63  62  97 E8        29.87R
MANHATTAN      CLOUDY    62  60  93 SW7       29.90R
EMPORIA        SUNNY     68  60  75 NE12      29.84F
CHANUTE        CLOUDY    74  68  81 NE5       29.82F
WICHITA        MOSUNNY   71  60  68 NE18      29.81F
OMAHA          TSTM      60  51  72 SW22G30   29.95R
LINCOLN        LGT RAIN  57  54  89 NE10      29.89F
FALLS CITY     LGT RAIN  59  57  93 E8        29.84F
LAMONI         CLOUDY    66  62  87 SW3       29.92R
DES MOINES     CLOUDY    68  62  81 CALM      29.89R

$$




USA.gov is the U.S. government's official web portal to all federal, state and local government web resources and services.